Regional Weather Roundup
Issued by NWS

Home | Current Version | Previous Version | Text Only | Print | Product List | Glossary Off
Versions: 1 2 3 4 5 6 7 8 9 10 11 12 13 14 15 16 17 18 19 20 21 22 23 24 25 26 27 28 29 30 31 32 33 34 35 36 37 38 39 40 41 42 43 44 45 46 47 48 49 50

000
ASUS45 KCYS 050510
RWRWY

WYOMING REGIONAL WEATHER ROUNDUP
NATIONAL WEATHER SERVICE CHEYENNE WY
1100 PM MDT MON MAY 04 2015

NOTE:  "FAIR" INDICATES FEW OR NO CLOUDS BELOW 12,000 FEET
WITH NO SIGNIFICANT WEATHER AND/OR OBSTRUCTIONS TO VISIBILITY.

WYZ001-050600-
YELLOWSTONE NATIONAL PARK

CITY           SKY/WX    TMP DP  RH WIND       PRES   REMARKS
LK YELLOWSTONE   N/A     35  31  85 NW3       30.07S
W YELLOWSTONE  NOT AVBL

$$
WYZ002>013-054>058-071-098>099-050600-
NORTHERN WYOMING

CITY           SKY/WX    TMP DP  RH WIND       PRES   REMARKS
JACKSON        FAIR      43  36  75 CALM      30.00S
CODY           FAIR      54  43  66 S6        29.93F
GREYBULL       FAIR      62  38  40 S5        29.89R
WORLAND        FAIR      59  41  51 S17       29.91S
SHERIDAN       FAIR      56  44  64 SE13G20   29.90F
BUFFALO        FAIR      49  41  74 S16       29.99F
GILLETTE       FAIR      47  33  58 S23       30.01F
HULETT         FAIR      52  34  50 MISG      30.04S
NEWCASTLE      CLOUDY    50  28  43 SE16G22   30.09S

$$
WYZ014>020-022>026-101>103-050600-
CENTRAL WYOMING

CITY           SKY/WX    TMP DP  RH WIND       PRES   REMARKS
BIG PINEY      FAIR      48  39  71 S3        30.05S
PINEDALE       FAIR      46  37  71 SE6       30.07S
DUBOIS         FAIR      45  34  65 SW8       30.04F
LANDER         FAIR      56  38  50 SW18G30   29.97S
RIVERTON       FAIR      55  41  59 SW15      29.98F
CASPER         FAIR      45  41  86 N3        30.01S
DOUGLAS        FAIR      48  38  68 SE17      30.06S

$$
WYZ021-027>030-104>119-050600-
SOUTHERN WYOMING

CITY           SKY/WX    TMP DP  RH WIND       PRES   REMARKS
EVANSTON       FAIR      47  38  71 E8        30.03S
KEMMERER       MOCLDY    46  36  66 NW3       30.05R
FORT BRIDGER   CLEAR     46  43  87 SE5       30.06F
ROCK SPRINGS   FAIR      47  39  74 NE7       30.04F
DIXON          FAIR      43  38  82 E6        30.04F
RAWLINS        FAIR      44  37  76 NE9       30.04F
SARATOGA       FAIR      41  39  93 E5        30.06S
LARAMIE        CLOUDY    44  42  93 SE21G26   30.08F
CHEYENNE       CLOUDY    44  42  93 S8        30.11F FOG
TORRINGTON     FAIR      45  38  76 SE6       30.10R
PINE BLUFFS    CLOUDY    43  43 100 SE6       30.12S

$$



USA.gov is the U.S. government's official web portal to all federal, state and local government web resources and services.